date,time,SUV Intensity [MED/Hr],UV Index,Daily total [MED],Since Last [MED]
13/08/2023,00:00:03,0.000,0.0,0.0,0.0
13/08/2023,00:01:02,0.000,0.0,0.0,0.0
13/08/2023,00:02:02,0.000,0.0,0.0,0.0
13/08/2023,00:03:02,0.000,0.0,0.0,0.0
13/08/2023,00:04:03,0.000,0.0,0.0,0.0
13/08/2023,00:05:03,0.000,0.0,0.0,0.0
13/08/2023,00:06:03,0.000,0.0,0.0,0.0
13/08/2023,00:07:03,0.000,0.0,0.0,0.0
13/08/2023,00:08:02,0.000,0.0,0.0,0.0
13/08/2023,00:09:03,0.000,0.0,0.0,0.0
13/08/2023,00:10:03,0.000,0.0,0.0,0.0
13/08/2023,00:11:03,0.000,0.0,0.0,0.0
13/08/2023,00:12:03,0.000,0.0,0.0,0.0
13/08/2023,00:13:03,-0.000,0.0,0.0,0.0
13/08/2023,00:14:02,0.000,0.0,0.0,0.0
13/08/2023,00:15:03,0.000,0.0,0.0,0.0
13/08/2023,00:16:03,0.000,0.0,0.0,0.0
13/08/2023,00:17:02,0.000,0.0,0.0,0.0
13/08/2023,00:18:01,0.000,0.0,0.0,0.0
13/08/2023,00:19:01,0.000,0.0,0.0,0.0
13/08/2023,00:20:02,0.000,0.0,0.0,0.0
13/08/2023,00:21:03,0.000,0.0,0.0,0.0
13/08/2023,00:22:03,0.000,0.0,0.0,0.0
13/08/2023,00:23:03,0.000,0.0,0.0,0.0
13/08/2023,00:24:02,0.000,0.0,0.0,0.0
13/08/2023,00:25:01,0.000,0.0,0.0,0.0
13/08/2023,00:26:00,0.000,0.0,0.0,0.0
13/08/2023,00:27:03,0.000,0.0,0.0,0.0
13/08/2023,00:28:03,0.000,0.0,0.0,0.0
13/08/2023,00:29:01,0.000,0.0,0.0,0.0
13/08/2023,00:30:00,0.000,0.0,0.0,0.0
13/08/2023,00:31:02,0.000,0.0,0.0,0.0
13/08/2023,00:32:03,0.000,0.0,0.0,0.0
13/08/2023,00:33:03,0.000,0.0,0.0,0.0
13/08/2023,00:34:03,0.000,0.0,0.0,0.0
13/08/2023,00:35:03,0.000,0.0,0.0,0.0
13/08/2023,00:36:03,0.000,0.0,0.0,0.0
13/08/2023,00:37:03,0.001,0.0,0.0,0.0
13/08/2023,00:38:03,0.000,0.0,0.0,0.0
13/08/2023,00:39:02,0.000,0.0,0.0,0.0
13/08/2023,00:40:03,0.001,0.0,0.0,0.0
13/08/2023,00:41:03,0.000,0.0,0.0,0.0
13/08/2023,00:42:02,0.001,0.0,0.0,0.0
13/08/2023,00:43:03,0.000,0.0,0.0,0.0
13/08/2023,00:44:03,0.001,0.0,0.0,0.0
13/08/2023,00:45:02,0.001,0.0,0.0,0.0
13/08/2023,00:46:03,0.001,0.0,0.0,0.0
13/08/2023,00:47:03,0.001,0.0,0.0,0.0
13/08/2023,00:48:03,0.001,0.0,0.0,0.0
13/08/2023,00:49:03,0.000,0.0,0.0,0.0
13/08/2023,00:50:02,0.001,0.0,0.0,0.0
13/08/2023,00:51:04,0.001,0.0,0.0,0.0
13/08/2023,00:52:03,0.001,0.0,0.0,0.0
13/08/2023,00:53:03,0.000,0.0,0.0,0.0
13/08/2023,00:54:01,0.001,0.0,0.0,0.0
13/08/2023,00:55:01,0.000,0.0,0.0,0.0
13/08/2023,00:56:03,0.000,0.0,0.0,0.0
13/08/2023,00:57:02,-0.000,0.0,0.0,0.0
13/08/2023,00:58:03,0.000,0.0,0.0,0.0
13/08/2023,00:59:02,0.001,0.0,0.0,0.0
13/08/2023,01:00:02,0.001,0.0,0.0,0.0
13/08/2023,01:01:03,0.000,0.0,0.0,0.0
13/08/2023,01:02:02,0.001,0.0,0.0,0.0
13/08/2023,01:03:03,0.001,0.0,0.0,0.0
13/08/2023,01:04:03,0.001,0.0,0.0,0.0
13/08/2023,01:05:03,0.001,0.0,0.0,0.0
13/08/2023,01:06:03,0.002,0.0,0.0,0.0
13/08/2023,01:07:03,0.002,0.0,0.0,0.0
13/08/2023,01:08:01,0.001,0.0,0.0,0.0
13/08/2023,01:09:01,0.002,0.0,0.0,0.0
13/08/2023,01:10:03,0.001,0.0,0.0,0.0
13/08/2023,01:11:03,0.000,0.0,0.0,0.0
13/08/2023,01:12:03,0.001,0.0,0.0,0.0
13/08/2023,01:13:03,0.000,0.0,0.0,0.0
13/08/2023,01:14:02,0.001,0.0,0.0,0.0
13/08/2023,01:15:03,0.001,0.0,0.0,0.0
13/08/2023,01:16:03,0.001,0.0,0.0,0.0
13/08/2023,01:17:01,0.000,0.0,0.0,0.0
13/08/2023,01:18:00,0.001,0.0,0.0,0.0
13/08/2023,01:19:02,0.001,0.0,0.0,0.0
13/08/2023,01:20:03,0.001,0.0,0.0,0.0
13/08/2023,01:21:03,0.001,0.0,0.0,0.0
13/08/2023,01:22:03,0.001,0.0,0.0,0.0
13/08/2023,01:23:03,0.001,0.0,0.0,0.0
13/08/2023,01:24:03,-0.000,0.0,0.0,0.0
13/08/2023,01:25:03,0.001,0.0,0.0,0.0
13/08/2023,01:26:03,0.000,0.0,0.0,0.0
13/08/2023,01:27:03,0.000,0.0,0.0,0.0
13/08/2023,01:28:03,0.000,0.0,0.0,0.0
13/08/2023,01:29:02,0.002,0.0,0.0,0.0
13/08/2023,01:30:03,0.000,0.0,0.0,0.0
13/08/2023,01:31:03,0.001,0.0,0.0,0.0
13/08/2023,01:32:03,0.001,0.0,0.0,0.0
13/08/2023,01:33:03,0.001,0.0,0.0,0.0
13/08/2023,01:34:02,0.001,0.0,0.0,0.0
13/08/2023,01:35:04,0.000,0.0,0.0,0.0
13/08/2023,01:36:03,0.001,0.0,0.0,0.0
13/08/2023,01:37:03,0.001,0.0,0.0,0.0
13/08/2023,01:38:03,0.001,0.0,0.0,0.0
13/08/2023,01:39:03,0.001,0.0,0.0,0.0
13/08/2023,01:40:03,0.001,0.0,0.0,0.0
13/08/2023,01:41:03,0.001,0.0,0.0,0.0
13/08/2023,01:42:02,0.001,0.0,0.0,0.0
13/08/2023,01:43:03,0.000,0.0,0.0,0.0
13/08/2023,01:44:03,0.001,0.0,0.0,0.0
13/08/2023,01:45:03,0.001,0.0,0.0,0.0
13/08/2023,01:46:02,0.001,0.0,0.0,0.0
13/08/2023,01:47:03,0.000,0.0,0.0,0.0
13/08/2023,01:48:02,0.001,0.0,0.0,0.0
13/08/2023,01:49:03,0.001,0.0,0.0,0.0
13/08/2023,01:50:02,0.001,0.0,0.0,0.0
13/08/2023,01:51:03,0.001,0.0,0.0,0.0
13/08/2023,01:52:03,0.000,0.0,0.0,0.0
13/08/2023,01:53:03,0.001,0.0,0.0,0.0
13/08/2023,01:54:02,0.001,0.0,0.0,0.0
13/08/2023,01:55:03,0.000,0.0,0.0,0.0
13/08/2023,01:56:03,0.001,0.0,0.0,0.0
13/08/2023,01:57:03,0.002,0.0,0.0,0.0
13/08/2023,01:58:01,0.000,0.0,0.0,0.0
13/08/2023,01:59:01,0.001,0.0,0.0,0.0
13/08/2023,02:00:03,0.001,0.0,0.0,0.0
13/08/2023,02:01:03,0.000,0.0,0.0,0.0
13/08/2023,02:02:03,0.001,0.0,0.0,0.0
13/08/2023,02:03:03,0.001,0.0,0.0,0.0
13/08/2023,02:04:03,0.000,0.0,0.0,0.0
13/08/2023,02:05:02,0.002,0.0,0.0,0.0
13/08/2023,02:06:03,0.001,0.0,0.0,0.0
13/08/2023,02:07:03,0.001,0.0,0.0,0.0
13/08/2023,02:08:02,0.001,0.0,0.0,0.0
13/08/2023,02:09:03,0.001,0.0,0.0,0.0
13/08/2023,02:10:03,0.001,0.0,0.0,0.0
13/08/2023,02:11:03,0.000,0.0,0.0,0.0
13/08/2023,02:12:03,0.001,0.0,0.0,0.0
13/08/2023,02:13:04,0.001,0.0,0.0,0.0
13/08/2023,02:14:03,0.001,0.0,0.0,0.0
13/08/2023,02:15:03,0.001,0.0,0.0,0.0
13/08/2023,02:16:03,0.000,0.0,0.0,0.0
13/08/2023,02:17:03,0.002,0.0,0.0,0.0
13/08/2023,02:18:03,0.000,0.0,0.0,0.0
13/08/2023,02:19:03,0.000,0.0,0.0,0.0
13/08/2023,02:20:03,0.001,0.0,0.0,0.0
13/08/2023,02:21:03,0.000,0.0,0.0,0.0
13/08/2023,02:22:03,0.000,0.0,0.0,0.0
13/08/2023,02:23:03,0.000,0.0,0.0,0.0
13/08/2023,02:24:03,0.000,0.0,0.0,0.0
13/08/2023,02:25:03,0.000,0.0,0.0,0.0
13/08/2023,02:26:03,0.001,0.0,0.0,0.0
13/08/2023,02:27:03,0.001,0.0,0.0,0.0
13/08/2023,02:28:03,0.002,0.0,0.0,0.0
13/08/2023,02:29:03,0.000,0.0,0.0,0.0
13/08/2023,02:30:03,0.000,0.0,0.0,0.0
13/08/2023,02:31:03,0.001,0.0,0.0,0.0
13/08/2023,02:32:03,0.001,0.0,0.0,0.0
13/08/2023,02:33:03,0.001,0.0,0.0,0.0
13/08/2023,02:34:03,0.001,0.0,0.0,0.0
13/08/2023,02:35:03,0.001,0.0,0.0,0.0
13/08/2023,02:36:03,0.001,0.0,0.0,0.0
13/08/2023,02:37:03,0.001,0.0,0.0,0.0
13/08/2023,02:38:03,0.001,0.0,0.0,0.0
13/08/2023,02:39:03,0.001,0.0,0.0,0.0
13/08/2023,02:40:03,0.000,0.0,0.0,0.0
13/08/2023,02:41:03,0.001,0.0,0.0,0.0
13/08/2023,02:42:03,0.001,0.0,0.0,0.0
13/08/2023,02:43:01,0.001,0.0,0.0,0.0
13/08/2023,02:44:01,0.001,0.0,0.0,0.0
13/08/2023,02:45:03,0.000,0.0,0.0,0.0
13/08/2023,02:46:03,0.001,0.0,0.0,0.0
13/08/2023,02:47:02,0.000,0.0,0.0,0.0
13/08/2023,02:48:03,0.000,0.0,0.0,0.0
13/08/2023,02:49:03,0.000,0.0,0.0,0.0
13/08/2023,02:50:03,0.001,0.0,0.0,0.0
13/08/2023,02:51:03,0.001,0.0,0.0,0.0
13/08/2023,02:52:03,0.000,0.0,0.0,0.0
13/08/2023,02:53:03,0.001,0.0,0.0,0.0
13/08/2023,02:54:03,0.000,0.0,0.0,0.0
13/08/2023,02:55:03,0.001,0.0,0.0,0.0
13/08/2023,02:56:03,0.000,0.0,0.0,0.0
13/08/2023,02:57:03,0.000,0.0,0.0,0.0
13/08/2023,02:58:03,0.000,0.0,0.0,0.0
13/08/2023,02:59:03,0.000,0.0,0.0,0.0
13/08/2023,03:00:03,0.000,0.0,0.0,0.0
13/08/2023,03:01:03,0.000,0.0,0.0,0.0
13/08/2023,03:02:03,0.000,0.0,0.0,0.0
13/08/2023,03:03:03,0.000,0.0,0.0,0.0
13/08/2023,03:04:03,0.000,0.0,0.0,0.0
13/08/2023,03:05:03,0.000,0.0,0.0,0.0
13/08/2023,03:06:03,0.000,0.0,0.0,0.0
13/08/2023,03:07:03,0.000,0.0,0.0,0.0
13/08/2023,03:08:03,0.000,0.0,0.0,0.0
13/08/2023,03:09:02,0.000,0.0,0.0,0.0
13/08/2023,03:10:03,0.000,0.0,0.0,0.0
13/08/2023,03:11:03,0.000,0.0,0.0,0.0
13/08/2023,03:12:03,0.000,0.0,0.0,0.0
13/08/2023,03:13:03,0.000,0.0,0.0,0.0
13/08/2023,03:14:01,0.000,0.0,0.0,0.0
13/08/2023,03:15:01,0.000,0.0,0.0,0.0
13/08/2023,03:16:04,0.000,0.0,0.0,0.0
13/08/2023,03:17:03,0.000,0.0,0.0,0.0
13/08/2023,03:18:03,0.001,0.0,0.0,0.0
13/08/2023,03:19:03,0.001,0.0,0.0,0.0
13/08/2023,03:20:03,0.000,0.0,0.0,0.0
13/08/2023,03:21:03,0.000,0.0,0.0,0.0
13/08/2023,03:22:03,0.000,0.0,0.0,0.0
13/08/2023,03:23:03,0.000,0.0,0.0,0.0
13/08/2023,03:24:03,0.000,0.0,0.0,0.0
13/08/2023,03:25:03,0.001,0.0,0.0,0.0
13/08/2023,03:26:03,-0.000,0.0,0.0,0.0
13/08/2023,03:27:03,0.000,0.0,0.0,0.0
13/08/2023,03:28:03,0.000,0.0,0.0,0.0
13/08/2023,03:29:03,0.000,0.0,0.0,0.0
13/08/2023,03:30:03,0.001,0.0,0.0,0.0
13/08/2023,03:31:03,0.001,0.0,0.0,0.0
13/08/2023,03:32:04,0.000,0.0,0.0,0.0
13/08/2023,03:33:04,0.001,0.0,0.0,0.0
13/08/2023,03:34:03,0.000,0.0,0.0,0.0
13/08/2023,03:35:01,0.000,0.0,0.0,0.0
13/08/2023,03:36:01,0.001,0.0,0.0,0.0
13/08/2023,03:37:03,0.001,0.0,0.0,0.0
13/08/2023,03:38:03,0.001,0.0,0.0,0.0
13/08/2023,03:39:01,0.001,0.0,0.0,0.0
13/08/2023,03:40:01,0.001,0.0,0.0,0.0
13/08/2023,03:41:03,0.001,0.0,0.0,0.0
13/08/2023,03:42:03,0.001,0.0,0.0,0.0
13/08/2023,03:43:03,0.000,0.0,0.0,0.0
13/08/2023,03:44:03,0.001,0.0,0.0,0.0
13/08/2023,03:45:03,0.000,0.0,0.0,0.0
13/08/2023,03:46:03,0.000,0.0,0.0,0.0
13/08/2023,03:47:03,0.000,0.0,0.0,0.0
13/08/2023,03:48:03,0.000,0.0,0.0,0.0
13/08/2023,03:49:01,0.001,0.0,0.0,0.0
13/08/2023,03:50:01,0.000,0.0,0.0,0.0
13/08/2023,03:51:03,0.000,0.0,0.0,0.0
13/08/2023,03:52:04,0.000,0.0,0.0,0.0
13/08/2023,03:53:03,-0.000,0.0,0.0,0.0
13/08/2023,03:54:03,0.000,0.0,0.0,0.0
13/08/2023,03:55:03,0.000,0.0,0.0,0.0
13/08/2023,03:56:03,0.000,0.0,0.0,0.0
13/08/2023,03:57:03,0.000,0.0,0.0,0.0
13/08/2023,03:58:04,0.001,0.0,0.0,0.0
13/08/2023,03:59:03,0.000,0.0,0.0,0.0
13/08/2023,04:00:03,0.000,0.0,0.0,0.0
13/08/2023,04:01:03,0.000,0.0,0.0,0.0
13/08/2023,04:02:01,0.000,0.0,0.0,0.0
13/08/2023,04:03:01,0.000,0.0,0.0,0.0
13/08/2023,04:04:03,0.001,0.0,0.0,0.0
13/08/2023,04:05:03,0.000,0.0,0.0,0.0
13/08/2023,04:06:04,0.000,0.0,0.0,0.0
13/08/2023,04:07:03,0.000,0.0,0.0,0.0
13/08/2023,04:08:03,0.000,0.0,0.0,0.0
13/08/2023,04:09:03,0.000,0.0,0.0,0.0
13/08/2023,04:10:03,0.000,0.0,0.0,0.0
13/08/2023,04:11:04,0.000,0.0,0.0,0.0
13/08/2023,04:12:03,0.000,0.0,0.0,0.0
13/08/2023,04:13:03,0.000,0.0,0.0,0.0
13/08/2023,04:14:03,0.000,0.0,0.0,0.0
13/08/2023,04:15:03,0.000,0.0,0.0,0.0
13/08/2023,04:16:04,0.000,0.0,0.0,0.0
13/08/2023,04:17:04,0.000,0.0,0.0,0.0
13/08/2023,04:18:03,0.000,0.0,0.0,0.0
13/08/2023,04:19:03,0.000,0.0,0.0,0.0
13/08/2023,04:20:03,-0.001,0.0,0.0,0.0
13/08/2023,04:21:03,-0.000,0.0,0.0,0.0
13/08/2023,04:22:04,0.000,0.0,0.0,0.0
13/08/2023,04:23:03,0.000,0.0,0.0,0.0
13/08/2023,04:24:03,0.001,0.0,0.0,0.0
13/08/2023,04:25:01,0.001,0.0,0.0,0.0
13/08/2023,04:26:01,0.000,0.0,0.0,0.0
13/08/2023,04:27:03,0.001,0.0,0.0,0.0
13/08/2023,04:28:03,0.001,0.0,0.0,0.0
13/08/2023,04:29:03,0.001,0.0,0.0,0.0
13/08/2023,04:30:03,0.001,0.0,0.0,0.0
13/08/2023,04:31:03,0.000,0.0,0.0,0.0
13/08/2023,04:32:03,0.001,0.0,0.0,0.0
13/08/2023,04:33:03,0.002,0.0,0.0,0.0
13/08/2023,04:34:03,0.001,0.0,0.0,0.0
13/08/2023,04:35:03,0.001,0.0,0.0,0.0
13/08/2023,04:36:03,0.001,0.0,0.0,0.0
13/08/2023,04:37:04,0.001,0.0,0.0,0.0
13/08/2023,04:38:03,0.001,0.0,0.0,0.0
13/08/2023,04:39:04,0.001,0.0,0.0,0.0
13/08/2023,04:40:03,0.002,0.0,0.0,0.0
13/08/2023,04:41:04,0.001,0.0,0.0,0.0
13/08/2023,04:42:03,0.001,0.0,0.0,0.0
13/08/2023,04:43:03,0.002,0.0,0.0,0.0
13/08/2023,04:44:03,0.002,0.0,0.0,0.0
13/08/2023,04:45:04,0.002,0.0,0.0,0.0
13/08/2023,04:46:03,0.003,0.0,0.0,0.0
13/08/2023,04:47:03,0.002,0.0,0.0,0.0
13/08/2023,04:48:03,0.001,0.0,0.0,0.0
13/08/2023,04:49:04,0.003,0.0,0.0,0.0
13/08/2023,04:50:03,0.003,0.0,0.0,0.0
13/08/2023,04:51:03,0.003,0.0,0.0,0.0
13/08/2023,04:52:03,0.002,0.0,0.0,0.0
13/08/2023,04:53:03,0.003,0.0,0.0,0.0
13/08/2023,04:54:03,0.003,0.0,0.0,0.0
13/08/2023,04:55:03,0.003,0.0,0.0,0.0
13/08/2023,04:56:03,0.004,0.0,0.0,0.0
13/08/2023,04:57:03,0.004,0.0,0.0,0.0
13/08/2023,04:58:04,0.004,0.0,0.0,0.0
13/08/2023,04:59:03,0.004,0.0,0.0,0.0
13/08/2023,05:00:03,0.003,0.0,0.0,0.0
13/08/2023,05:01:03,0.003,0.0,0.0,0.0
13/08/2023,05:02:03,0.004,0.0,0.0,0.0
13/08/2023,05:03:04,0.004,0.0,0.0,0.0
13/08/2023,05:04:03,0.004,0.0,0.0,0.0
13/08/2023,05:05:03,0.004,0.0,0.0,0.0
13/08/2023,05:06:03,0.004,0.0,0.0,0.0
13/08/2023,05:07:03,0.005,0.0,0.0,0.0
13/08/2023,05:08:03,0.005,0.0,0.0,0.0
13/08/2023,05:09:03,0.005,0.0,0.0,0.0
13/08/2023,05:10:03,0.005,0.0,0.0,0.0
13/08/2023,05:11:03,0.005,0.0,0.0,0.0
13/08/2023,05:12:04,0.005,0.0,0.0,0.0
13/08/2023,05:13:03,0.006,0.0,0.0,0.0
13/08/2023,05:14:04,0.005,0.0,0.0,0.0
13/08/2023,05:15:03,0.007,0.0,0.0,0.0
13/08/2023,05:16:03,0.006,0.0,0.0,0.0
13/08/2023,05:17:03,0.006,0.0,0.0,0.0
13/08/2023,05:18:03,0.007,0.0,0.0,0.0
13/08/2023,05:19:03,0.007,0.0,0.0,0.0
13/08/2023,05:20:03,0.008,0.0,0.001,0.001
13/08/2023,05:21:04,0.008,0.0,0.001,0.0
13/08/2023,05:22:03,0.009,0.0,0.001,0.0
13/08/2023,05:23:04,0.010,0.0,0.001,0.0
13/08/2023,05:24:03,0.010,0.0,0.001,0.0
13/08/2023,05:25:04,0.010,0.0,0.001,0.0
13/08/2023,05:26:04,0.011,0.0,0.001,0.0
13/08/2023,05:27:04,0.011,0.0,0.002,0.001
13/08/2023,05:28:03,0.012,0.0,0.002,0.0
13/08/2023,05:29:03,0.013,0.0,0.002,0.0
13/08/2023,05:30:03,0.013,0.0,0.002,0.0
13/08/2023,05:31:03,0.014,0.0,0.003,0.001
13/08/2023,05:32:03,0.014,0.0,0.003,0.0
13/08/2023,05:33:04,0.014,0.0,0.003,0.0
13/08/2023,05:34:03,0.016,0.0,0.003,0.0
13/08/2023,05:35:04,0.016,0.0,0.004,0.001
13/08/2023,05:36:03,0.017,0.0,0.004,0.0
13/08/2023,05:37:03,0.017,0.0,0.004,0.0
13/08/2023,05:38:03,0.019,0.0,0.004,0.0
13/08/2023,05:39:04,0.019,0.0,0.005,0.001
13/08/2023,05:40:03,0.020,0.0,0.005,0.0
13/08/2023,05:41:03,0.021,0.0,0.005,0.0
13/08/2023,05:42:03,0.022,0.0,0.006,0.001
13/08/2023,05:43:04,0.023,0.0,0.006,0.0
13/08/2023,05:44:03,0.023,0.0,0.006,0.0
13/08/2023,05:45:03,0.026,0.0,0.007,0.001
13/08/2023,05:46:02,0.027,0.0,0.007,0.0
13/08/2023,05:47:01,0.028,0.0,0.008,0.001
13/08/2023,05:48:03,0.030,0.0,0.008,0.0
13/08/2023,05:49:03,0.031,0.0,0.009,0.001
13/08/2023,05:50:04,0.032,0.0,0.009,0.0
13/08/2023,05:51:03,0.032,0.0,0.01,0.001
13/08/2023,05:52:03,0.034,0.0,0.01,0.0
13/08/2023,05:53:01,0.035,0.0,0.011,0.001
13/08/2023,05:54:01,0.036,0.0,0.012,0.001
13/08/2023,05:55:04,0.037,0.0,0.012,0.0
13/08/2023,05:56:03,0.036,0.0,0.013,0.001
13/08/2023,05:57:03,0.039,0.0,0.013,0.0
13/08/2023,05:58:03,0.039,0.0,0.014,0.001
13/08/2023,05:59:03,0.039,0.0,0.015,0.001
13/08/2023,06:00:04,0.041,0.0,0.015,0.0
13/08/2023,06:01:03,0.042,0.0,0.016,0.001
13/08/2023,06:02:05,0.044,0.0,0.017,0.001
13/08/2023,06:03:04,0.043,0.0,0.018,0.001
13/08/2023,06:04:03,0.045,0.0,0.018,0.0
13/08/2023,06:05:04,0.045,0.0,0.019,0.001
13/08/2023,06:06:03,0.046,0.0,0.02,0.001
13/08/2023,06:07:03,0.046,0.0,0.02,0.0
13/08/2023,06:08:03,0.045,0.0,0.021,0.001
13/08/2023,06:09:03,0.045,0.0,0.022,0.001
13/08/2023,06:10:03,0.046,0.0,0.023,0.001
13/08/2023,06:11:04,0.047,0.0,0.024,0.001
13/08/2023,06:12:03,0.048,0.0,0.024,0.0
13/08/2023,06:13:03,0.048,0.0,0.025,0.001
13/08/2023,06:14:03,0.050,0.0,0.026,0.001
13/08/2023,06:15:03,0.053,0.0,0.027,0.001
13/08/2023,06:16:01,0.055,0.0,0.028,0.001
13/08/2023,06:17:01,0.055,0.0,0.029,0.001
13/08/2023,06:18:03,0.055,0.0,0.03,0.001
13/08/2023,06:19:03,0.053,0.0,0.03,0.0
13/08/2023,06:20:03,0.055,0.0,0.031,0.001
13/08/2023,06:21:04,0.055,0.0,0.032,0.001
13/08/2023,06:22:04,0.058,0.0,0.033,0.001
13/08/2023,06:23:03,0.059,0.0,0.034,0.001
13/08/2023,06:24:04,0.063,0.0,0.035,0.001
13/08/2023,06:25:03,0.067,0.0,0.036,0.001
13/08/2023,06:26:04,0.070,0.0,0.037,0.001
13/08/2023,06:27:03,0.074,0.0,0.039,0.002
13/08/2023,06:28:03,0.077,0.0,0.04,0.001
13/08/2023,06:29:04,0.078,0.0,0.041,0.001
13/08/2023,06:30:03,0.079,0.0,0.042,0.001
13/08/2023,06:31:03,0.077,0.0,0.044,0.002
13/08/2023,06:32:03,0.077,0.0,0.045,0.001
13/08/2023,06:33:04,0.083,0.0,0.046,0.001
13/08/2023,06:34:03,0.084,0.0,0.048,0.002
13/08/2023,06:35:04,0.084,0.0,0.049,0.001
13/08/2023,06:36:03,0.091,0.0,0.051,0.002
13/08/2023,06:37:03,0.092,0.0,0.052,0.001
13/08/2023,06:38:03,0.093,0.0,0.054,0.002
13/08/2023,06:39:03,0.094,0.0,0.055,0.001
13/08/2023,06:40:03,0.104,0.0,0.057,0.002
13/08/2023,06:41:03,0.102,0.0,0.059,0.002
13/08/2023,06:42:01,0.096,0.0,0.06,0.001
13/08/2023,06:43:01,0.092,0.0,0.062,0.002
13/08/2023,06:44:03,0.101,0.0,0.064,0.002
13/08/2023,06:45:03,0.103,0.0,0.065,0.001
13/08/2023,06:46:04,0.105,0.0,0.067,0.002
13/08/2023,06:47:03,0.106,0.0,0.069,0.002
13/08/2023,06:48:04,0.100,0.0,0.07,0.001
13/08/2023,06:49:03,0.100,0.0,0.072,0.002
13/08/2023,06:50:03,0.097,0.0,0.074,0.002
13/08/2023,06:51:04,0.110,0.0,0.075,0.001
13/08/2023,06:52:03,0.120,0.0,0.077,0.002
13/08/2023,06:53:03,0.134,0.0,0.08,0.003
13/08/2023,06:54:04,0.137,0.0,0.082,0.002
13/08/2023,06:55:03,0.129,0.0,0.084,0.002
13/08/2023,06:56:04,0.116,0.0,0.086,0.002
13/08/2023,06:57:03,0.106,0.0,0.088,0.002
13/08/2023,06:58:03,0.116,0.0,0.09,0.002
13/08/2023,06:59:02,0.134,0.0,0.092,0.002
13/08/2023,07:00:01,0.145,0.0,0.094,0.002
13/08/2023,07:01:03,0.153,0.0,0.097,0.003
13/08/2023,07:02:04,0.153,0.0,0.099,0.002
13/08/2023,07:03:03,0.157,0.0,0.102,0.003
13/08/2023,07:04:03,0.152,0.0,0.104,0.002
13/08/2023,07:05:04,0.156,0.0,0.107,0.003
13/08/2023,07:06:03,0.167,0.0,0.11,0.003
13/08/2023,07:07:04,0.173,0.0,0.112,0.002
13/08/2023,07:08:03,0.177,0.0,0.115,0.003
13/08/2023,07:09:03,0.182,0.0,0.118,0.003
13/08/2023,07:10:03,0.185,0.0,0.121,0.003
13/08/2023,07:11:04,0.189,0.0,0.125,0.004
13/08/2023,07:12:01,0.202,0.0,0.128,0.003
13/08/2023,07:13:02,0.213,0.0,0.131,0.003
13/08/2023,07:14:03,0.218,1.0,0.135,0.004
13/08/2023,07:15:03,0.226,1.0,0.139,0.004
13/08/2023,07:16:04,0.234,1.0,0.142,0.003
13/08/2023,07:17:03,0.236,1.0,0.146,0.004
13/08/2023,07:18:03,0.241,1.0,0.15,0.004
13/08/2023,07:19:04,0.233,1.0,0.154,0.004
13/08/2023,07:20:03,0.208,0.0,0.158,0.004
13/08/2023,07:21:03,0.197,0.0,0.161,0.003
13/08/2023,07:22:04,0.184,0.0,0.165,0.004
13/08/2023,07:23:03,0.179,0.0,0.168,0.003
13/08/2023,07:24:03,0.176,0.0,0.171,0.003
13/08/2023,07:25:04,0.173,0.0,0.173,0.002
13/08/2023,07:26:03,0.174,0.0,0.176,0.003
13/08/2023,07:27:03,0.177,0.0,0.179,0.003
13/08/2023,07:28:04,0.181,0.0,0.182,0.003
13/08/2023,07:29:03,0.184,0.0,0.185,0.003
13/08/2023,07:30:03,0.183,0.0,0.188,0.003
13/08/2023,07:31:04,0.183,0.0,0.191,0.003
13/08/2023,07:32:03,0.182,0.0,0.194,0.003
13/08/2023,07:33:04,0.188,0.0,0.197,0.003
13/08/2023,07:34:03,0.199,0.0,0.201,0.004
13/08/2023,07:35:03,0.198,0.0,0.204,0.003
13/08/2023,07:36:03,0.202,0.0,0.207,0.003
13/08/2023,07:37:02,0.208,0.0,0.211,0.004
13/08/2023,07:38:01,0.212,0.0,0.214,0.003
13/08/2023,07:39:03,0.201,0.0,0.218,0.004
13/08/2023,07:40:03,0.194,0.0,0.221,0.003
13/08/2023,07:41:02,0.193,0.0,0.224,0.003
13/08/2023,07:42:01,0.201,0.0,0.227,0.003
13/08/2023,07:43:03,0.209,0.0,0.231,0.004
13/08/2023,07:44:04,0.195,0.0,0.234,0.003
13/08/2023,07:45:03,0.208,0.0,0.237,0.003
13/08/2023,07:46:04,0.219,1.0,0.241,0.004
13/08/2023,07:47:01,0.236,1.0,0.245,0.004
13/08/2023,07:48:01,0.246,1.0,0.249,0.004
13/08/2023,07:49:03,0.223,1.0,0.253,0.004
13/08/2023,07:50:04,0.222,1.0,0.257,0.004
13/08/2023,07:51:03,0.224,1.0,0.26,0.003
13/08/2023,07:52:03,0.203,0.0,0.264,0.004
13/08/2023,07:53:04,0.189,0.0,0.267,0.003
13/08/2023,07:54:03,0.184,0.0,0.27,0.003
13/08/2023,07:55:03,0.199,0.0,0.273,0.003
13/08/2023,07:56:04,0.200,0.0,0.277,0.004
13/08/2023,07:57:03,0.179,0.0,0.28,0.003
13/08/2023,07:58:03,0.185,0.0,0.283,0.003
13/08/2023,07:59:03,0.208,0.0,0.286,0.003
13/08/2023,08:00:03,0.228,1.0,0.29,0.004
13/08/2023,08:01:04,0.244,1.0,0.294,0.004
13/08/2023,08:02:03,0.253,1.0,0.298,0.004
13/08/2023,08:03:03,0.255,1.0,0.302,0.004
13/08/2023,08:04:04,0.263,1.0,0.306,0.004
13/08/2023,08:05:03,0.302,1.0,0.311,0.005
13/08/2023,08:06:04,0.361,1.0,0.317,0.006
13/08/2023,08:07:03,0.407,1.0,0.323,0.006
13/08/2023,08:08:04,0.420,1.0,0.33,0.007
13/08/2023,08:09:03,0.446,1.0,0.337,0.007
13/08/2023,08:10:03,0.490,1.0,0.345,0.008
13/08/2023,08:11:04,0.481,1.0,0.353,0.008
13/08/2023,08:12:03,0.488,1.0,0.361,0.008
13/08/2023,08:13:03,0.503,1.0,0.37,0.009
13/08/2023,08:14:04,0.524,1.0,0.378,0.008
13/08/2023,08:15:03,0.541,1.0,0.387,0.009
13/08/2023,08:16:03,0.493,1.0,0.396,0.009
13/08/2023,08:17:02,0.491,1.0,0.404,0.008
13/08/2023,08:18:02,0.502,1.0,0.412,0.008
13/08/2023,08:19:04,0.507,1.0,0.421,0.009
13/08/2023,08:20:03,0.517,1.0,0.429,0.008
13/08/2023,08:21:03,0.522,1.0,0.438,0.009
13/08/2023,08:22:04,0.532,1.0,0.447,0.009
13/08/2023,08:23:03,0.537,1.0,0.456,0.009
13/08/2023,08:24:03,0.527,1.0,0.464,0.008
13/08/2023,08:25:04,0.510,1.0,0.473,0.009
13/08/2023,08:26:03,0.499,1.0,0.481,0.008
13/08/2023,08:27:03,0.496,1.0,0.489,0.008
13/08/2023,08:28:04,0.483,1.0,0.498,0.009
13/08/2023,08:29:03,0.477,1.0,0.506,0.008
13/08/2023,08:30:03,0.467,1.0,0.514,0.008
13/08/2023,08:31:04,0.452,1.0,0.521,0.007
13/08/2023,08:32:03,0.491,1.0,0.529,0.008
13/08/2023,08:33:03,0.488,1.0,0.537,0.008
13/08/2023,08:34:05,0.472,1.0,0.545,0.008
13/08/2023,08:35:03,0.522,1.0,0.554,0.009
13/08/2023,08:36:03,0.560,1.0,0.563,0.009
13/08/2023,08:37:03,0.510,1.0,0.572,0.009
13/08/2023,08:38:04,0.428,1.0,0.58,0.008
13/08/2023,08:39:03,0.422,1.0,0.586,0.006
13/08/2023,08:40:04,0.446,1.0,0.594,0.008
13/08/2023,08:41:01,0.495,1.0,0.601,0.007
13/08/2023,08:42:02,0.528,1.0,0.61,0.009
13/08/2023,08:43:03,0.544,1.0,0.619,0.009
13/08/2023,08:44:03,0.651,1.0,0.629,0.01
13/08/2023,08:45:04,0.495,1.0,0.639,0.01
13/08/2023,08:46:04,0.550,1.0,0.648,0.009
13/08/2023,08:47:03,0.615,1.0,0.658,0.01
13/08/2023,08:48:03,0.741,2.0,0.668,0.01
13/08/2023,08:49:04,0.685,2.0,0.682,0.014
13/08/2023,08:50:03,0.584,1.0,0.693,0.011
13/08/2023,08:51:03,0.494,1.0,0.702,0.009
13/08/2023,08:52:04,0.380,1.0,0.709,0.007
13/08/2023,08:53:03,0.292,1.0,0.714,0.005
13/08/2023,08:54:03,0.350,1.0,0.72,0.006
13/08/2023,08:55:02,0.439,1.0,0.726,0.006
13/08/2023,08:56:02,0.513,1.0,0.734,0.008
13/08/2023,08:57:04,0.558,1.0,0.743,0.009
13/08/2023,08:58:03,0.578,1.0,0.753,0.01
13/08/2023,08:59:04,0.596,1.0,0.763,0.01
13/08/2023,09:00:03,0.636,1.0,0.773,0.01
13/08/2023,09:01:03,0.668,2.0,0.784,0.011
13/08/2023,09:02:02,0.693,2.0,0.795,0.011
13/08/2023,09:03:02,0.741,2.0,0.807,0.012
13/08/2023,09:04:03,0.792,2.0,0.819,0.012
13/08/2023,09:05:03,0.800,2.0,0.833,0.014
13/08/2023,09:06:04,0.769,2.0,0.845,0.012
13/08/2023,09:07:03,0.732,2.0,0.858,0.013
13/08/2023,09:08:03,0.745,2.0,0.87,0.012
13/08/2023,09:09:04,0.693,2.0,0.882,0.012
13/08/2023,09:10:03,0.703,2.0,0.894,0.012
13/08/2023,09:11:03,0.726,2.0,0.906,0.012
13/08/2023,09:12:03,0.860,2.0,0.918,0.012
13/08/2023,09:13:03,0.645,1.0,0.929,0.011
13/08/2023,09:14:07,0.636,1.0,0.94,0.011
13/08/2023,09:15:04,0.597,1.0,0.95,0.01
13/08/2023,09:16:04,0.509,1.0,0.96,0.01
13/08/2023,09:17:04,0.471,1.0,0.968,0.008
13/08/2023,09:18:04,0.518,1.0,0.976,0.008
13/08/2023,09:19:04,0.773,2.0,0.986,0.01
13/08/2023,09:20:03,0.822,2.0,1.002,0.016
13/08/2023,09:21:03,0.852,2.0,1.021,0.019
13/08/2023,09:22:04,0.862,2.0,1.038,0.017
13/08/2023,09:23:03,0.786,2.0,1.054,0.016
13/08/2023,09:24:03,0.763,2.0,1.067,0.013
13/08/2023,09:25:02,0.764,2.0,1.08,0.013
13/08/2023,09:26:02,0.779,2.0,1.093,0.013
13/08/2023,09:27:03,0.836,2.0,1.107,0.014
13/08/2023,09:28:04,1.002,2.0,1.124,0.017
13/08/2023,09:29:04,0.809,2.0,1.138,0.014
13/08/2023,09:30:02,0.745,2.0,1.151,0.013
13/08/2023,09:31:04,0.743,2.0,1.164,0.013
13/08/2023,09:32:03,0.754,2.0,1.176,0.012
13/08/2023,09:33:04,0.761,2.0,1.189,0.013
13/08/2023,09:34:04,0.798,2.0,1.202,0.013
13/08/2023,09:35:03,0.781,2.0,1.215,0.013
13/08/2023,09:36:03,0.724,2.0,1.228,0.013
13/08/2023,09:37:04,0.709,2.0,1.239,0.011
13/08/2023,09:38:04,0.628,1.0,1.251,0.012
13/08/2023,09:39:04,0.501,1.0,1.26,0.009
13/08/2023,09:40:03,0.415,1.0,1.268,0.008
13/08/2023,09:41:03,0.389,1.0,1.274,0.006
13/08/2023,09:42:02,0.346,1.0,1.28,0.006
13/08/2023,09:43:02,0.279,1.0,1.286,0.006
13/08/2023,09:44:04,0.258,1.0,1.29,0.004
13/08/2023,09:45:03,0.262,1.0,1.294,0.004
13/08/2023,09:46:04,0.229,1.0,1.299,0.005
13/08/2023,09:47:03,0.241,1.0,1.302,0.003
13/08/2023,09:48:04,0.328,1.0,1.307,0.005
13/08/2023,09:49:04,0.393,1.0,1.313,0.006
13/08/2023,09:50:04,0.432,1.0,1.32,0.007
13/08/2023,09:51:03,0.445,1.0,1.328,0.008
13/08/2023,09:52:04,0.391,1.0,1.334,0.006
13/08/2023,09:53:01,0.394,1.0,1.34,0.006
13/08/2023,09:54:02,0.448,1.0,1.348,0.008
13/08/2023,09:55:04,0.558,1.0,1.356,0.008
13/08/2023,09:56:03,0.689,2.0,1.367,0.011
13/08/2023,09:57:03,0.748,2.0,1.379,0.012
13/08/2023,09:58:04,0.866,2.0,1.393,0.014
13/08/2023,09:59:04,0.917,2.0,1.408,0.015
13/08/2023,10:00:04,0.920,2.0,1.424,0.016
13/08/2023,10:01:04,0.915,2.0,1.439,0.015